Terminal Aerodrome Forecast
Issued by NWS Knoxville/Tri Cities, TN

Home | Current Version | Previous Version | Text Only | Print | Product List | Glossary On
Versions: 1 2 3 4 5 6 7 8 9 10 11 12 13
000
FTUS44 KMRX 181120
TAFTRI
TAF
KTRI 181120Z 1812/1912 00000KT 1SM BR OVC006
     FM181800 24003KT 6SM BR OVC008
     FM182000 24005KT P6SM OVC012
     FM190200 24003KT P6SM OVC010
     FM190600 23003KT 4SM BR OVC015=

USA.gov is the U.S. government's official web portal to all federal, state and local government web resources and services.